map of HSG home
HSG - Airport
Location
City:  Saga, Saga, Japan
Name:Saga Airport
ICAO:RJFS
IATA:HSG

Details
Type:Airport (Aerodrome, Airfield)
Latitude:33°08'59"N (33.149722)
Longitude:130°18'08"E (130.302222)
Datum:WGS 1984
Elevation:6 ft (2 m)
Variation:7.43°W (WMM2015v2 magnetic declination)
-0.08° annual change
Runways:1
Longest:6562 × 148 ft (2000 × 45 m), paved

Time
Time Zone:UTC+9
Local Time:

Weather
METAR:RJFS 041200Z 33004KT CAVOK 06/01 Q1023
TAF:RJFS 041108Z 0412/0518 35005KT 9999 FEW040
BECMG 0414/0416 03007KT
BECMG 0503/0506 22005KT
BECMG 0509/0512 10005KT
TEMPO 0515/0518 4000 -SHRA BR

Related Locations
Nearby:
Farthest:SJRG: 12280 mi / 19762 km
Río Grande [Regional de Río Grande], RS, BR

Find:

   beyond  
but within

Other Information
Maps:
NOTAMs:
Links:
Sources:

  
  • flag of Japan
  • flag of Saga
  

Sectional Chart

Flight Planning
at skyvector.com

Satellite Image

Google Maps Satellite view

 

Copyright © 2004-2019 Karl L. Swartz. All rights reserved.
The Great Circle Mapper name and logo are trademarks of the Great Circle Mapper.
All other trademarks mentioned herein belong to their respective owners.
Please see credits for attibutions and further copyright information.

  Follow gcmap on Facebook Follow gcmap on Twitter GCmap on LinkedIn

hCard Microformat

Geo Microformat